GLO1414 SBRP-SBSP

Flight info

Callsign GLO1414
Flight time 0h 40m
Altitude 29000
Route LOKAR DCT UTLOT
Aircraft B738/M-SDFGIKRWY/LB1

Departure

Time 2026-05-09 15:19
Airport Leite Lopes Airport (SBRP)

Arrival

Time 2026-05-09 16:00
Airport Congonhas–Deputado Freitas Nobre Airport (SBSP)
Time Latitude Longitude Altitude Speed Heading
2026-05-09 15:06 -21.13882 -47.77597 1825 ft 0 kts 254°
2026-05-09 15:14 -21.13879 -47.77587 1825 ft 4 kts 247°
2026-05-09 15:14 -21.13864 -47.77566 1825 ft 4 kts 200°
2026-05-09 15:14 -21.13842 -47.77565 1825 ft 2 kts 164°
2026-05-09 15:14 -21.13841 -47.77565 1825 ft 1 kts 164°
2026-05-09 15:16 -21.13863 -47.77537 1825 ft 8 kts 100°
2026-05-09 15:16 -21.13854 -47.77470 1825 ft 10 kts 96°
2026-05-09 15:17 -21.13906 -47.77426 1826 ft 11 kts 165°
2026-05-09 15:17 -21.13982 -47.77404 1826 ft 12 kts 162°
2026-05-09 15:17 -21.14067 -47.77375 1826 ft 14 kts 162°
2026-05-09 15:17 -21.14161 -47.77344 1826 ft 15 kts 162°
2026-05-09 15:18 -21.14263 -47.77300 1826 ft 16 kts 137°
2026-05-09 15:18 -21.14307 -47.77189 1825 ft 17 kts 108°
2026-05-09 15:18 -21.14196 -47.77156 1826 ft 43 kts 344°
2026-05-09 15:18 -21.13646 -47.77333 1825 ft 119 kts 343°
2026-05-09 15:19 -21.12659 -47.77653 2004 ft 167 kts 344°
2026-05-09 15:19 -21.11537 -47.77999 2970 ft 165 kts 345°
2026-05-09 15:19 -21.10463 -47.78340 4000 ft 163 kts 345°
2026-05-09 15:19 -21.09383 -47.78962 4469 ft 201 kts 314°
2026-05-09 15:20 -21.08806 -47.80462 4751 ft 242 kts 277°
2026-05-09 15:20 -21.10440 -47.83828 5976 ft 284 kts 224°
2026-05-09 15:20 -21.11957 -47.85195 6934 ft 286 kts 223°
2026-05-09 15:21 -21.13504 -47.86562 7848 ft 290 kts 223°
2026-05-09 15:21 -21.15066 -47.87960 8771 ft 295 kts 223°
2026-05-09 15:21 -21.16634 -47.89386 9713 ft 297 kts 224°
2026-05-09 15:21 -21.18218 -47.90847 10485 ft 306 kts 224°
2026-05-09 15:22 -21.19887 -47.92405 10753 ft 331 kts 224°
2026-05-09 15:22 -21.21655 -47.94067 11322 ft 343 kts 224°
2026-05-09 15:22 -21.23455 -47.95765 12128 ft 346 kts 224°
2026-05-09 15:22 -21.25264 -47.97474 12958 ft 348 kts 224°
2026-05-09 15:23 -21.27090 -47.99201 13748 ft 352 kts 224°
2026-05-09 15:23 -21.28934 -48.00949 14438 ft 355 kts 224°
2026-05-09 15:23 -21.30792 -48.02713 15094 ft 359 kts 224°
2026-05-09 15:23 -21.32671 -48.04498 15750 ft 362 kts 224°
2026-05-09 15:24 -21.34568 -48.06301 16389 ft 366 kts 224°
2026-05-09 15:24 -21.36462 -48.08101 17032 ft 370 kts 225°
2026-05-09 15:24 -21.38397 -48.09942 17669 ft 374 kts 225°
2026-05-09 15:24 -21.40359 -48.11809 18309 ft 377 kts 225°
2026-05-09 15:25 -21.42318 -48.13674 18854 ft 380 kts 225°
2026-05-09 15:25 -21.44310 -48.15570 19420 ft 383 kts 225°
2026-05-09 15:25 -21.46310 -48.17474 19985 ft 385 kts 225°
2026-05-09 15:26 -21.50613 -48.21003 21057 ft 401 kts 206°
2026-05-09 15:26 -21.53322 -48.21686 21612 ft 411 kts 187°
2026-05-09 15:26 -21.56195 -48.21381 22152 ft 421 kts 169°
2026-05-09 15:26 -21.59040 -48.20573 22675 ft 425 kts 167°
2026-05-09 15:27 -21.61899 -48.19691 23141 ft 430 kts 167°
2026-05-09 15:27 -21.64784 -48.18796 23628 ft 433 kts 167°
2026-05-09 15:27 -21.67707 -48.17910 24037 ft 436 kts 167°
2026-05-09 15:27 -21.70645 -48.17042 24443 ft 439 kts 168°
2026-05-09 15:28 -21.73606 -48.16180 24857 ft 442 kts 168°
2026-05-09 15:28 -21.76588 -48.15317 25260 ft 445 kts 168°
2026-05-09 15:28 -21.79598 -48.14446 25654 ft 448 kts 168°
2026-05-09 15:28 -21.82598 -48.13542 26164 ft 449 kts 166°
2026-05-09 15:29 -21.85571 -48.12498 26744 ft 448 kts 165°
2026-05-09 15:29 -21.88509 -48.11386 27297 ft 448 kts 164°
2026-05-09 15:29 -21.91445 -48.10250 27797 ft 448 kts 164°
2026-05-09 15:29 -21.94353 -48.09128 28287 ft 449 kts 164°
2026-05-09 15:30 -21.97297 -48.08003 28817 ft 449 kts 164°
2026-05-09 15:30 -22.00261 -48.06881 29030 ft 455 kts 165°
2026-05-09 15:30 -22.06371 -48.04597 29039 ft 473 kts 165°
2026-05-09 15:31 -22.12699 -48.02233 29043 ft 489 kts 165°
2026-05-09 15:31 -22.19214 -47.99793 29042 ft 502 kts 164°
2026-05-09 15:32 -22.25835 -47.97309 29030 ft 510 kts 164°
2026-05-09 15:32 -22.32538 -47.94789 29019 ft 509 kts 164°
2026-05-09 15:33 -22.39256 -47.92264 29013 ft 509 kts 165°
2026-05-09 15:33 -22.45905 -47.89602 28990 ft 513 kts 155°
2026-05-09 15:34 -22.48806 -47.87427 29016 ft 518 kts 138°
2026-05-09 15:34 -22.51202 -47.84522 29033 ft 518 kts 130°
2026-05-09 15:34 -22.55669 -47.78383 29004 ft 520 kts 129°
2026-05-09 15:35 -22.60162 -47.72237 28451 ft 520 kts 129°
2026-05-09 15:35 -22.62415 -47.69213 27897 ft 513 kts 130°
2026-05-09 15:35 -22.64655 -47.66229 27296 ft 508 kts 130°
2026-05-09 15:36 -22.66871 -47.63282 26708 ft 502 kts 130°
2026-05-09 15:36 -22.69068 -47.60359 26133 ft 498 kts 130°
2026-05-09 15:36 -22.71242 -47.57461 25563 ft 494 kts 130°
2026-05-09 15:36 -22.73400 -47.54579 24981 ft 490 kts 130°
2026-05-09 15:37 -22.75542 -47.51715 24389 ft 487 kts 130°
2026-05-09 15:37 -22.77669 -47.48871 23806 ft 484 kts 130°
2026-05-09 15:37 -22.79780 -47.46044 23179 ft 481 kts 130°
2026-05-09 15:37 -22.81878 -47.43232 22589 ft 476 kts 129°
2026-05-09 15:38 -22.83925 -47.40488 22036 ft 471 kts 129°
2026-05-09 15:38 -22.85977 -47.37734 21501 ft 466 kts 129°
2026-05-09 15:38 -22.88008 -47.35007 20967 ft 462 kts 129°
2026-05-09 15:38 -22.89364 -47.33187 20614 ft 458 kts 129°
2026-05-09 15:39 -22.92003 -47.29640 19930 ft 453 kts 129°
2026-05-09 15:39 -22.93334 -47.27850 19578 ft 450 kts 129°
2026-05-09 15:39 -22.95292 -47.25215 19057 ft 447 kts 128°
2026-05-09 15:39 -22.97211 -47.22633 18540 ft 443 kts 128°
2026-05-09 15:40 -22.99147 -47.20027 17967 ft 440 kts 128°
2026-05-09 15:40 -23.01114 -47.17506 17408 ft 436 kts 136°
2026-05-09 15:40 -23.03561 -47.15623 16951 ft 428 kts 155°
2026-05-09 15:40 -23.06324 -47.14587 16617 ft 415 kts 169°
2026-05-09 15:41 -23.09129 -47.13980 16281 ft 407 kts 172°
2026-05-09 15:41 -23.11896 -47.13426 15945 ft 402 kts 172°
2026-05-09 15:41 -23.14631 -47.12871 15603 ft 399 kts 171°
2026-05-09 15:41 -23.17316 -47.12306 15270 ft 394 kts 171°
2026-05-09 15:42 -23.20005 -47.11722 14946 ft 395 kts 170°
2026-05-09 15:42 -23.22707 -47.11127 14610 ft 397 kts 170°
2026-05-09 15:42 -23.25418 -47.10528 14260 ft 396 kts 170°
2026-05-09 15:42 -23.28105 -47.09936 13936 ft 392 kts 170°
2026-05-09 15:43 -23.30774 -47.09351 13560 ft 390 kts 170°
2026-05-09 15:43 -23.33426 -47.08771 13218 ft 387 kts 170°
2026-05-09 15:43 -23.36060 -47.08194 12882 ft 385 kts 170°
2026-05-09 15:43 -23.38679 -47.07620 12564 ft 383 kts 171°
2026-05-09 15:44 -23.41230 -47.06808 12222 ft 384 kts 154°
2026-05-09 15:44 -23.43371 -47.05147 11930 ft 384 kts 135°
2026-05-09 15:44 -23.44967 -47.02847 11635 ft 379 kts 122°
2026-05-09 15:44 -23.46355 -47.00442 11316 ft 372 kts 121°
2026-05-09 15:45 -23.47698 -46.98060 11011 ft 366 kts 121°
2026-05-09 15:45 -23.49019 -46.95732 10717 ft 354 kts 121°
2026-05-09 15:45 -23.50297 -46.93506 10475 ft 341 kts 121°
2026-05-09 15:45 -23.51556 -46.91331 10191 ft 335 kts 121°
2026-05-09 15:46 -23.52786 -46.89216 9990 ft 321 kts 121°
2026-05-09 15:46 -23.53948 -46.87224 9816 ft 308 kts 121°
2026-05-09 15:46 -23.55104 -46.85241 9399 ft 309 kts 121°
2026-05-09 15:46 -23.56275 -46.83293 9266 ft 305 kts 127°
2026-05-09 15:47 -23.57861 -46.81796 9150 ft 304 kts 148°
2026-05-09 15:47 -23.59668 -46.80576 9145 ft 306 kts 149°
2026-05-09 15:47 -23.61480 -46.79349 9118 ft 305 kts 148°
2026-05-09 15:47 -23.63268 -46.78123 9108 ft 302 kts 148°
2026-05-09 15:48 -23.65040 -46.76901 9056 ft 303 kts 148°
2026-05-09 15:48 -23.66840 -46.75656 8822 ft 308 kts 148°
2026-05-09 15:48 -23.68628 -46.74417 8594 ft 308 kts 148°
2026-05-09 15:48 -23.70438 -46.73162 8263 ft 308 kts 148°
2026-05-09 15:49 -23.72242 -46.71911 8023 ft 305 kts 148°
2026-05-09 15:49 -23.74025 -46.70673 7801 ft 301 kts 148°
2026-05-09 15:49 -23.75790 -46.69448 7571 ft 299 kts 148°
2026-05-09 15:49 -23.77538 -46.68235 7346 ft 297 kts 148°
2026-05-09 15:50 -23.79274 -46.67028 7127 ft 295 kts 148°
2026-05-09 15:50 -23.81002 -46.65827 6904 ft 293 kts 148°
2026-05-09 15:50 -23.82694 -46.64652 6687 ft 292 kts 148°
2026-05-09 15:50 -23.84427 -46.63447 6463 ft 290 kts 148°
2026-05-09 15:51 -23.86129 -46.62266 6244 ft 289 kts 148°
2026-05-09 15:51 -23.87782 -46.61127 6168 ft 279 kts 148°
2026-05-09 15:51 -23.89416 -46.60078 6040 ft 265 kts 152°
2026-05-09 15:51 -23.90756 -46.58793 5788 ft 254 kts 118°
2026-05-09 15:52 -23.91003 -46.55300 5329 ft 222 kts 62°
2026-05-09 15:52 -23.90212 -46.53954 5253 ft 203 kts 38°
2026-05-09 15:52 -23.89084 -46.53087 5248 ft 195 kts 19°
2026-05-09 15:53 -23.87807 -46.52641 5234 ft 191 kts
2026-05-09 15:53 -23.86501 -46.52705 5244 ft 189 kts 347°
2026-05-09 15:53 -23.85215 -46.52942 5248 ft 191 kts 348°
2026-05-09 15:53 -23.83901 -46.53185 5230 ft 192 kts 348°
2026-05-09 15:54 -23.82587 -46.53433 5291 ft 191 kts 348°
2026-05-09 15:54 -23.81275 -46.53683 5296 ft 191 kts 348°
2026-05-09 15:54 -23.79972 -46.53949 5313 ft 191 kts 342°
2026-05-09 15:54 -23.78768 -46.54535 5270 ft 186 kts 330°
2026-05-09 15:55 -23.77668 -46.55240 5149 ft 182 kts 329°
2026-05-09 15:55 -23.76618 -46.55951 5052 ft 173 kts 328°
2026-05-09 15:55 -23.75622 -46.56640 4963 ft 167 kts 328°
2026-05-09 15:55 -23.74650 -46.57315 4858 ft 162 kts 328°
2026-05-09 15:56 -23.73719 -46.57962 4794 ft 153 kts 328°
2026-05-09 15:56 -23.72860 -46.58559 4713 ft 141 kts 328°
2026-05-09 15:56 -23.72040 -46.59128 4607 ft 139 kts 328°
2026-05-09 15:56 -23.71219 -46.59700 4420 ft 140 kts 328°
2026-05-09 15:57 -23.70403 -46.60265 4216 ft 136 kts 328°
2026-05-09 15:57 -23.69608 -46.60818 4071 ft 137 kts 328°
2026-05-09 15:57 -23.68797 -46.61383 3879 ft 138 kts 328°
2026-05-09 15:57 -23.67992 -46.61943 3704 ft 135 kts 329°
2026-05-09 15:58 -23.67217 -46.62482 3540 ft 131 kts 330°
2026-05-09 15:58 -23.66443 -46.63019 3358 ft 132 kts 330°
2026-05-09 15:58 -23.65660 -46.63559 3175 ft 133 kts 327°
2026-05-09 15:58 -23.64895 -46.64096 3002 ft 129 kts 324°
2026-05-09 15:59 -23.64148 -46.64624 2796 ft 127 kts 326°
2026-05-09 15:59 -23.63406 -46.65142 2638 ft 126 kts 328°
2026-05-09 15:59 -23.62743 -46.65592 2606 ft 96 kts 328°
2026-05-09 15:59 -23.62305 -46.65896 2599 ft 53 kts 327°
2026-05-09 16:00 -23.62209 -46.66006 2598 ft 14 kts 257°
2026-05-09 16:00 -23.62225 -46.66031 2598 ft 10 kts 218°
2026-05-09 16:00 -23.62329 -46.65983 2599 ft 10 kts 146°
2026-05-09 16:00 -23.62387 -46.65944 2605 ft 10 kts 149°
2026-05-09 16:01 -23.62448 -46.65935 2613 ft 10 kts 220°
2026-05-09 16:01 -23.62479 -46.65984 2613 ft 0 kts 236°
2026-05-09 16:01 -23.62479 -46.65985 2613 ft 0 kts 236°